SCP
0 0 0 0 0 0 0 0 0 0 0 0 0 0 0 0 0 0 0 0 0 0 0 0 0 0 -0 0 0 0 0 0 0 0 0 0 0 0 0 0 0 0 0 0 0 0 0
0 0 0 0 0 0 0 0 0 0 0 0 0 0 0 0 0 0 0 0 0 0 0 0 0 0 0 0 0 0 0 0 0 0 0 0 0 0 0 0 0 0 0 0 0 0 0
0 0 0 0 0 0 0 0 0 0 0 0 0 0 0 0 0 0 0 0 0 0 0 0 0 0 0 0 0 0 0 0 0 0 0 0 0 0 0 0 0 0 0 0 0 0 0
0 0 0 0 0 0 0 0 0 0 0 0 0 0 0 0 0 0 0 0 0 0 0 0 0 0 0 0 0 0 0 0 0 0 0 0 0 0 0 0 0 0 0 0 0 0 0
0 0 0 0 0 0 0 0 0 0 0 0 0 0 0 0 0 0 0 0 0 0 0 0 0 0 0 0 0 0 0 0 0 0 0 0 0 0 0 0 0 0 0 0 0 0 0
0 0 0 0 0 0 0 0 0 0 0 0 0 0 0 0 0 0 0 0 0 0 0 0 0 0 0 0 0 0 0 0 0 0 0 0 0 0 0 0 0 0 0 0 0 0 0
0 0 0 0 0 0 0 0 0 0 0 0 0 0 0 0 0 0 0 0 0 0 0 0 0 0 0 0 0 0 0 0 0 0 0 0 0 0 0 0 0 0 0 0 0 0 0
0 0 0 0 0 0 0 0 0 0 0 0 0 0 0 0 0 0 0 0 0 0 0 0 0 0 0 0 0 0 0 0 0 0 0 0 0 0 0 0 0 0 0 0 0 0 0
0 0 0 0 0 0 0 0 0 0 0 0 0 0 0 0 0 0 0 0 0 0 0 0 0 0 0 0 0 0 0 0 0 0 0 0 0 0 0 0 0 0 0 0 0 0 0
0 0 0 0 0 0 0 0 0 0 0 0 0 0 0 0 0 0 0 0 0 0 0 0 0 0 0 0 0 0 0 0 0 0 0 0 0 0 0 0 0 0 0 0 0 0 0
0 0 0 0 0 0 0 0 0 0 0 0 0 0 0 0 0 0 0 0 0 0 0 0 0 0 0 0 0 0 0 0 0 0 0 0 0 0 0 0 0 0 0 0 0 0 0
0 0 0 0 0 0 0 0 0 0 0 0 0 0 0 0 0 0 0 0 0 0 0 0 0 0 0 0 0 0 0 0 0 0 0 0 0 0 0 0 0 0 0 0 0 0 0
0 0 0 0 0 0 0 0 0 0 0 0 0 0 0 0 0 0 0 0 0 0 0 0 0 0 0 0 0 0 0 0 0 0 0 0 0 0 0 0 0 0 0 0 0 0 0
0 0 0 0 0 0 0 0 0 0 0 0 0 0 0 0 0 0 0 0 0 0 0 0 0 0 0 0 0 0 0 0 0 0 0 0 0 0 0 0 0 0 0 0 0 0 0
0 0 0 0 0 0 0 0 0 0 0 0 0 0 0 0 0 0 0 0 0 0 0 0 0 0 0 0 0 0 0 0 0 0 0 0 0 0 0 0 0 0 0 0 0 0 0
0 0 0 0 0 0 0 0 0 -0 -0 0 0 0 0 0 0 0 0 0 0 0 0 0 0 0 0 0 0 0 0 0 0 0 0 0 0 0 0 0 0 0 0 0 0 0 0
0 0 0 0 0 0 0 0 0 0 0 0 0 0 0 0 0 0 0 0 0 0 0 0 0 0 0 0 0 0 0 0 0 0 0 0 0 0 0 0 0 0 0 0 0 0 0
0 0 0 0 0 0 0 0 0 0 0 0 0 0 0 0 0 0 0 0 0 0 0 0 0 0 0 0 0 0 0 0 0 0 0 0 0 0 0 0 0 0 0 0 0 0 0
0 0 0 0 0 0 0 0 0 0 0 0 0 0 0 0 0 0 0 0 0 0 0 0 0 0 0 0 0 0 0 0 0 0 0 0 0 0 0 0 0 0 0 0 0 0 0
0 0 0 0 0 0 0 0 0 0 0 0 0 0 0 0 0 0 0 0 0 0 0 0 0 0 0 0 0 0 0 0 0 0 0 0 0 0 0 0 0 0 0 0 0 0 0
-0 0 0 0 0 0 0 0 0 0 0 0 0 0 0 0 0 0 0 0 0 0 0 0 0 0 0 0 0 0 0 0 0 0 0 0 0 0 0 0 0 0 0 0 0 0 0
0 0 0 0 0 0 0 0 0 0 0 0 0 0 0 0 0 0 0 0 0 0 0 0 0 0 0 0 0 0 0 0 0 0 0 0 0 0 0 0 0 0 0 0 0 0 0
0 0 0 0 0 0 0 0 0 0 0 0 0 0 0 0 0 0 0 0 0 0 0 0 0 0 0 0 0 0 0 0 0 0 0 0 0 0 0 0 0 0 0 0 0 0 0
0 0 0 0 0 0 0 0 0 0 0 0 0 0 0 0 0 0 0 0 0 0 0 0 0 0 0 0 0 0 0 0 0 0 0 0 0 0 0 0 0 0 0 0 0 0 0
0 0 0 0 0 0 0 0 0 0 0 0 0 0 0 0 0 0 0 0 0 0 0 0 0 0 0 0 0 0 0 0 0 0 0 0 0 0 0 0 0 0 0 0 0 0 0
0 0 0 0 0 0 0 0 0 0 0 0 0 0 0 0 0 0 0 0 0 0 0 0 0 0 0 0 0 0 0 0 0 0 0 0 0 0 0 0 0 0 0 0 0 0 0
0 0 0 0 0 0 0 0 0 0 0 0 0 0 0 0 0 0 0 0 0 0 0 0 0 0 0 0 0 0 0 0 0 0 0 0 0 0 0 0 0 0 0 0 0 0 0
-0 0 0 0 0 0 0 0 0 0 0 0 0 0 0 0 0 0 0 0 0 0 0 0 0 0 0 0 0 0 0 0 0 0 0 0 0 0 0 0 0 0 0 0 0 0 0
0 0 0 0 0 0 0 0 0 0 0 0 0 0 0 0 0 0 0 0 0 0 0 0 0 0 0 0 0 0 0 0 0 0 0 0 0 0 0 0 -0 -0 0 0 -0 0 -0
Wind_Speed_500mb
94 87 82 76 75 76 74 74 72 69 66 62 59 55 52 47 44 40 37 35 34 34 36 38 41 42 41 24 29 31 35 40 41 35 13 12 11 10 7 5 6 9 8 15 36 36 29
101 92 87 81 77 75 77 75 72 70 67 64 61 58 54 49 45 42 39 35 34 34 36 37 39 40 34 22 16 16 20 21 19 14 10 8 6 8 6 6 9 4 16 30 30 34 32
103 101 92 87 82 77 76 76 73 70 67 65 63 60 56 51 46 42 37 34 34 34 36 38 38 41 42 57 36 40 39 38 32 31 32 20 15 14 6 3 7 9 17 23 24 23 13
91 101 97 93 88 83 78 75 73 70 68 65 62 59 54 51 47 42 38 35 34 35 34 37 37 37 30 38 46 51 42 52 47 47 51 38 32 18 9 6 6 9 7 12 2 5 7
64 105 99 101 95 90 84 80 74 69 68 66 62 59 55 51 46 42 38 35 35 34 32 32 31 24 32 29 19 6 3 11 12 10 20 24 38 16 11 8 7 7 22 12 10 13 6
82 71 99 109 103 98 94 88 79 74 71 68 65 59 56 51 46 42 38 35 33 31 30 29 29 18 31 32 22 11 7 9 7 10 13 14 12 11 12 17 24 21 14 7 16 2 7
94 68 82 104 106 99 92 97 87 81 75 72 67 61 57 51 48 46 43 32 15 14 41 30 23 18 8 5 7 11 20 17 15 10 10 11 12 29 53 46 36 12 11 17 6 13 18
103 80 78 92 82 97 96 89 94 88 81 74 66 59 57 54 52 48 46 37 25 10 18 43 61 59 58 45 21 28 21 17 17 18 14 8 32 23 13 29 30 35 35 34 27 30 18
101 97 84 91 91 79 105 88 92 87 84 80 70 62 56 54 52 55 60 52 31 33 14 17 46 44 54 51 36 54 43 25 13 18 29 37 17 15 24 22 29 34 35 27 30 19 23
76 91 75 73 85 81 79 75 83 83 93 83 75 65 59 58 66 63 57 52 49 39 7 10 16 17 27 24 14 22 48 44 20 37 12 23 33 26 19 20 27 32 24 34 30 17 19
66 67 51 62 70 79 72 86 86 84 87 80 70 58 64 67 41 64 58 54 51 15 8 9 9 12 24 19 3 1 9 34 29 21 18 18 12 18 35 38 28 23 13 24 22 16 16
69 66 46 53 53 60 56 51 52 54 66 71 69 57 48 54 47 38 49 41 39 8 18 11 11 12 15 12 2 16 9 15 18 9 17 20 9 7 12 13 27 6 6 2 2 8 20
44 53 47 56 57 61 64 64 57 53 52 57 58 49 52 54 66 59 43 52 9 10 3 11 9 12 8 10 10 15 15 15 11 10 15 13 44 16 11 16 9 26 15 5 7 11 16
35 50 51 46 45 40 45 60 59 55 61 53 50 49 55 63 67 68 65 8 10 13 11 1 8 18 14 19 11 16 13 11 15 5 6 5 9 28 27 44 18 31 29 13 13 12 7
53 36 41 34 29 33 30 41 56 64 63 65 61 60 65 63 61 61 48 9 18 13 12 16 10 7 7 12 6 11 17 11 16 26 16 11 11 3 11 27 30 13 26 21 11 5 11
31 21 30 30 26 24 40 45 54 61 66 67 62 57 50 64 58 67 23 15 13 11 10 7 21 13 15 13 16 16 16 9 7 27 7 3 12 12 6 13 30 27 14 9 6 11 17
46 43 44 33 34 23 18 28 43 57 61 66 64 26 28 56 64 37 16 13 15 20 17 11 13 11 9 11 14 12 6 4 4 4 27 9 10 8 8 13 25 18 30 9 6 12 12
32 25 18 19 20 25 18 6 16 36 45 60 62 9 27 61 15 4 6 6 4 20 20 5 5 10 13 15 9 10 13 3 3 5 17 13 6 17 31 14 13 22 28 46 17 21 9
39 32 27 26 18 11 15 13 25 41 68 78 36 15 27 63 13 5 5 5 4 4 12 20 22 16 10 13 7 14 10 3 6 6 15 14 6 14 17 11 6 18 18 31 46 10 37
25 31 29 23 22 14 15 16 16 16 29 44 19 7 6 15 3 11 10 8 11 4 6 9 6 5 10 18 13 11 11 5 4 5 8 11 12 17 30 12 5 9 26 19 37 23 31
18 15 13 18 14 15 13 13 13 8 18 22 9 3 4 9 7 5 9 11 11 8 4 3 2 9 9 5 9 14 15 7 9 6 6 8 20 17 20 13 11 6 17 14 17 31 17
18 12 11 9 8 7 8 7 3 8 17 20 7 6 10 4 19 12 10 9 14 6 9 7 11 14 12 10 8 2 4 3 4 7 9 4 7 13 16 28 23 19 28 29 27 24 19
19 17 12 9 5 5 5 2 4 3 5 9 12 17 7 8 8 9 9 12 12 17 5 4 10 8 9 11 15 12 5 7 6 4 3 6 6 9 17 19 21 18 43 43 39 30 17
12 12 11 11 8 3 1 5 3 6 4 10 13 12 7 4 6 7 10 6 15 11 9 11 14 5 10 16 14 6 12 21 24 22 19 6 4 10 17 14 25 27 21 42 43 39 35
11 10 8 8 8 7 6 2 6 9 15 11 16 8 7 7 7 7 15 9 18 14 6 9 12 12 23 11 4 3 5 6 16 30 34 29 12 7 9 25 32 11 7 14 25 11 11
15 12 9 9 8 9 5 2 4 7 16 16 11 7 6 10 11 8 15 21 9 9 7 7 11 19 18 4 4 5 4 4 3 8 14 23 22 12 8 9 8 10 16 27 10 12 7
15 14 14 16 17 13 12 8 5 7 14 20 13 12 8 9 8 13 6 16 12 7 6 7 13 11 14 4 3 5 4 3 5 7 1 5 9 23 21 14 11 7 17 11 17 6 17
17 18 17 15 18 20 19 17 12 9 13 27 22 18 13 7 10 10 10 14 14 12 7 13 10 3 5 7 6 5 6 7 5 6 5 4 3 5 8 14 16 24 14 14 12 7 19
24 20 19 17 19 25 24 26 24 17 14 22 28 25 18 8 7 12 13 13 12 13 15 14 4 8 12 6 3 3 5 4 6 6 2 7 11 7 9 10 19 21 24 16 18 24 30
Wind_Direction_500mb
229 228 229 228 228 228 227 228 229 229 229 231 234 235 237 239 243 248 253 260 269 279 287 295 301 308 315 302 270 265 261 265 273 281 267 224 215 188 199 211 288 239 266 276 279 287 284
231 228 228 228 227 227 228 227 228 229 231 232 233 234 236 237 241 246 252 259 267 275 284 289 297 302 309 289 267 255 256 251 238 230 225 220 207 196 225 212 197 301 285 285 285 286 286
232 227 228 228 229 228 228 228 228 228 228 230 232 234 235 237 239 243 248 255 263 271 279 285 291 298 293 270 275 265 260 250 242 249 255 251 242 221 172 254 262 275 287 287 258 259 241
235 230 227 228 228 228 228 228 228 229 228 228 230 232 233 233 235 238 243 248 256 264 270 279 285 296 272 286 273 270 262 259 258 255 257 251 238 227 203 292 313 281 223 267 350 187 260
234 235 231 227 228 228 227 228 227 228 227 226 227 228 229 230 231 232 235 242 250 258 265 273 287 292 271 268 270 254 233 218 203 234 233 223 217 201 163 171 284 225 262 229 311 258 272
236 242 236 231 227 229 226 226 225 226 225 224 225 225 225 225 226 228 229 234 248 256 264 272 259 279 255 253 258 226 179 215 225 164 119 160 184 190 175 184 234 235 233 227 252 214 246
232 233 242 234 234 229 229 224 225 224 223 221 223 223 224 220 221 221 222 216 233 257 227 211 206 211 178 196 272 245 235 217 186 183 186 187 210 210 206 211 244 271 247 260 240 265 293
232 232 241 235 233 228 227 225 226 223 221 219 219 220 220 220 218 219 218 206 195 195 284 252 245 247 244 264 272 226 206 194 188 203 150 169 239 228 231 224 234 247 264 270 278 267 261
231 233 242 233 236 235 233 228 222 220 218 215 215 213 217 217 215 215 217 218 219 240 264 236 237 242 243 243 239 241 229 225 202 215 200 220 223 222 200 218 222 237 244 257 261 295 269
227 236 223 232 229 226 231 231 229 219 217 212 210 212 214 216 209 206 215 219 222 231 275 233 214 243 184 197 254 244 228 213 211 236 217 253 242 238 210 223 211 247 217 244 259 270 284
210 214 229 216 206 219 226 221 225 219 213 210 205 201 199 207 194 202 212 215 210 169 257 147 150 157 170 175 2 13 176 193 214 199 181 217 173 216 228 236 202 254 188 218 240 250 289
221 229 235 231 223 210 207 190 194 193 199 196 186 179 183 193 216 219 218 211 186 131 235 179 136 165 154 212 229 129 154 175 220 225 251 248 268 250 226 205 201 160 185 81 239 260 264
197 210 210 216 206 204 202 201 196 193 198 193 197 197 209 221 227 217 210 175 133 204 25 173 171 164 204 178 211 183 169 176 166 157 221 257 244 233 198 216 183 196 187 243 238 216 257
213 200 189 190 196 195 197 188 190 193 196 201 204 207 214 217 215 217 185 128 199 205 216 135 128 148 181 168 222 188 156 195 220 167 141 221 300 193 206 215 204 194 186 190 222 214 275
135 133 154 166 180 192 206 207 199 201 201 207 209 216 213 218 219 201 174 190 198 188 178 166 149 167 201 204 211 177 199 202 207 186 190 191 254 197 217 209 200 182 215 213 264 234 285
150 132 133 146 149 185 206 203 216 214 213 214 217 214 207 219 221 209 202 196 212 210 145 171 197 180 192 197 185 195 191 173 208 189 206 229 284 218 169 173 220 216 177 170 187 222 238
125 139 148 147 151 171 192 212 221 221 208 206 213 190 194 210 203 202 216 191 216 217 157 169 190 182 210 187 195 195 213 59 51 161 196 172 221 224 159 191 190 204 230 229 185 228 243
113 119 133 144 164 177 173 153 198 187 200 189 199 195 178 185 181 115 175 173 248 204 203 122 143 193 198 177 179 217 220 244 176 160 167 214 218 256 247 250 203 216 227 207 210 209 224
115 111 113 113 102 121 150 156 153 176 185 187 177 149 181 180 183 184 157 163 11 227 206 187 192 196 182 191 231 194 190 136 192 151 174 175 224 262 263 232 204 224 218 218 224 244 222
102 118 102 101 91 87 105 174 183 193 162 167 143 146 148 181 53 159 142 161 173 44 59 68 120 122 186 221 216 237 213 185 156 120 206 181 190 228 250 273 337 275 236 224 211 220 235
92 92 92 105 106 105 90 107 181 211 183 172 118 114 151 155 192 104 128 144 146 142 83 90 31 150 143 213 217 212 221 271 253 183 243 232 225 206 244 231 237 238 284 289 238 241 243
66 84 111 135 166 176 183 159 81 185 155 153 91 99 86 97 131 115 131 190 160 124 148 192 176 157 164 189 166 100 342 72 170 318 212 222 243 188 242 237 215 230 236 255 259 270 268
67 69 69 86 152 187 186 183 100 40 118 97 111 134 149 136 120 127 158 168 168 143 128 127 153 131 156 162 139 138 193 217 226 246 216 202 219 201 251 249 229 235 225 223 233 220 213
41 42 49 48 45 44 228 238 188 177 156 96 136 136 116 131 116 126 147 147 152 163 125 130 134 114 151 138 137 169 224 244 240 229 211 257 257 239 254 218 230 249 245 220 220 229 212
23 14 355 353 2 23 15 295 228 193 175 166 162 169 154 115 118 127 154 145 126 124 105 141 160 174 154 114 76 231 187 232 235 229 225 215 200 278 253 228 250 259 185 188 192 232 345
359 344 315 317 291 307 323 318 264 208 185 171 171 145 90 115 215 143 145 154 136 160 136 189 170 163 158 99 92 194 210 23 300 315 213 217 246 234 237 284 293 12 351 346 282 210 24
328 313 303 280 272 271 270 277 260 215 194 175 178 184 134 106 135 154 154 178 155 137 134 132 148 142 179 114 147 182 215 246 248 266 238 199 222 233 247 251 259 360 314 316 211 50 2
308 308 296 271 248 254 246 240 251 243 198 186 184 191 188 106 142 162 149 149 149 163 148 157 116 91 102 168 165 191 206 215 241 246 268 270 320 296 286 234 229 8 354 359 288 243 291
309 302 284 276 253 239 250 232 227 237 221 193 192 186 195 167 145 181 187 166 158 148 138 159 140 155 156 115 182 143 191 226 221 252 165 253 222 270 240 271 291 291 253 289 275 268 249
Wind_Speed_850mb
94 87 82 76 75 76 74 74 72 69 66 62 59 55 52 47 44 40 37 35 34 34 36 38 41 42 41 24 29 31 35 40 41 35 13 12 11 10 7 5 6 9 8 15 36 36 29
101 92 87 81 77 75 77 75 72 70 67 64 61 58 54 49 45 42 39 35 34 34 36 37 39 40 34 22 16 16 20 21 19 14 10 8 6 8 6 6 9 4 16 30 30 34 32
103 101 92 87 82 77 76 76 73 70 67 65 63 60 56 51 46 42 37 34 34 34 36 38 38 41 42 57 36 40 39 38 32 31 32 20 15 14 6 3 7 9 17 23 24 23 13
91 101 97 93 88 83 78 75 73 70 68 65 62 59 54 51 47 42 38 35 34 35 34 37 37 37 30 38 46 51 42 52 47 47 51 38 32 18 9 6 6 9 7 12 2 5 7
64 105 99 101 95 90 84 80 74 69 68 66 62 59 55 51 46 42 38 35 35 34 32 32 31 24 32 29 19 6 3 11 12 10 20 24 38 16 11 8 7 7 22 12 10 13 6
82 71 99 109 103 98 94 88 79 74 71 68 65 59 56 51 46 42 38 35 33 31 30 29 29 18 31 32 22 11 7 9 7 10 13 14 12 11 12 17 24 21 14 7 16 2 7
94 68 82 104 106 99 92 97 87 81 75 72 67 61 57 51 48 46 43 32 15 14 41 30 23 18 8 5 7 11 20 17 15 10 10 11 12 29 53 46 36 12 11 17 6 13 18
103 80 78 92 82 97 96 89 94 88 81 74 66 59 57 54 52 48 46 37 25 10 18 43 61 59 58 45 21 28 21 17 17 18 14 8 32 23 13 29 30 35 35 34 27 30 18
101 97 84 91 91 79 105 88 92 87 84 80 70 62 56 54 52 55 60 52 31 33 14 17 46 44 54 51 36 54 43 25 13 18 29 37 17 15 24 22 29 34 35 27 30 19 23
76 91 75 73 85 81 79 75 83 83 93 83 75 65 59 58 66 63 57 52 49 39 7 10 16 17 27 24 14 22 48 44 20 37 12 23 33 26 19 20 27 32 24 34 30 17 19
66 67 51 62 70 79 72 86 86 84 87 80 70 58 64 67 41 64 58 54 51 15 8 9 9 12 24 19 3 1 9 34 29 21 18 18 12 18 35 38 28 23 13 24 22 16 16
69 66 46 53 53 60 56 51 52 54 66 71 69 57 48 54 47 38 49 41 39 8 18 11 11 12 15 12 2 16 9 15 18 9 17 20 9 7 12 13 27 6 6 2 2 8 20
44 53 47 56 57 61 64 64 57 53 52 57 58 49 52 54 66 59 43 52 9 10 3 11 9 12 8 10 10 15 15 15 11 10 15 13 44 16 11 16 9 26 15 5 7 11 16
35 50 51 46 45 40 45 60 59 55 61 53 50 49 55 63 67 68 65 8 10 13 11 1 8 18 14 19 11 16 13 11 15 5 6 5 9 28 27 44 18 31 29 13 13 12 7
53 36 41 34 29 33 30 41 56 64 63 65 61 60 65 63 61 61 48 9 18 13 12 16 10 7 7 12 6 11 17 11 16 26 16 11 11 3 11 27 30 13 26 21 11 5 11
31 21 30 30 26 24 40 45 54 61 66 67 62 57 50 64 58 67 23 15 13 11 10 7 21 13 15 13 16 16 16 9 7 27 7 3 12 12 6 13 30 27 14 9 6 11 17
46 43 44 33 34 23 18 28 43 57 61 66 64 26 28 56 64 37 16 13 15 20 17 11 13 11 9 11 14 12 6 4 4 4 27 9 10 8 8 13 25 18 30 9 6 12 12
32 25 18 19 20 25 18 6 16 36 45 60 62 9 27 61 15 4 6 6 4 20 20 5 5 10 13 15 9 10 13 3 3 5 17 13 6 17 31 14 13 22 28 46 17 21 9
39 32 27 26 18 11 15 13 25 41 68 78 36 15 27 63 13 5 5 5 4 4 12 20 22 16 10 13 7 14 10 3 6 6 15 14 6 14 17 11 6 18 18 31 46 10 37
25 31 29 23 22 14 15 16 16 16 29 44 19 7 6 15 3 11 10 8 11 4 6 9 6 5 10 18 13 11 11 5 4 5 8 11 12 17 30 12 5 9 26 19 37 23 31
18 15 13 18 14 15 13 13 13 8 18 22 9 3 4 9 7 5 9 11 11 8 4 3 2 9 9 5 9 14 15 7 9 6 6 8 20 17 20 13 11 6 17 14 17 31 17
18 12 11 9 8 7 8 7 3 8 17 20 7 6 10 4 19 12 10 9 14 6 9 7 11 14 12 10 8 2 4 3 4 7 9 4 7 13 16 28 23 19 28 29 27 24 19
19 17 12 9 5 5 5 2 4 3 5 9 12 17 7 8 8 9 9 12 12 17 5 4 10 8 9 11 15 12 5 7 6 4 3 6 6 9 17 19 21 18 43 43 39 30 17
12 12 11 11 8 3 1 5 3 6 4 10 13 12 7 4 6 7 10 6 15 11 9 11 14 5 10 16 14 6 12 21 24 22 19 6 4 10 17 14 25 27 21 42 43 39 35
11 10 8 8 8 7 6 2 6 9 15 11 16 8 7 7 7 7 15 9 18 14 6 9 12 12 23 11 4 3 5 6 16 30 34 29 12 7 9 25 32 11 7 14 25 11 11
15 12 9 9 8 9 5 2 4 7 16 16 11 7 6 10 11 8 15 21 9 9 7 7 11 19 18 4 4 5 4 4 3 8 14 23 22 12 8 9 8 10 16 27 10 12 7
15 14 14 16 17 13 12 8 5 7 14 20 13 12 8 9 8 13 6 16 12 7 6 7 13 11 14 4 3 5 4 3 5 7 1 5 9 23 21 14 11 7 17 11 17 6 17
17 18 17 15 18 20 19 17 12 9 13 27 22 18 13 7 10 10 10 14 14 12 7 13 10 3 5 7 6 5 6 7 5 6 5 4 3 5 8 14 16 24 14 14 12 7 19
24 20 19 17 19 25 24 26 24 17 14 22 28 25 18 8 7 12 13 13 12 13 15 14 4 8 12 6 3 3 5 4 6 6 2 7 11 7 9 10 19 21 24 16 18 24 30
Wind_Direction_850mb
229 228 229 228 228 228 227 228 229 229 229 231 234 235 237 239 243 248 253 260 269 279 287 295 301 308 315 302 270 265 261 265 273 281 267 224 215 188 199 211 288 239 266 276 279 287 284
231 228 228 228 227 227 228 227 228 229 231 232 233 234 236 237 241 246 252 259 267 275 284 289 297 302 309 289 267 255 256 251 238 230 225 220 207 196 225 212 197 301 285 285 285 286 286
232 227 228 228 229 228 228 228 228 228 228 230 232 234 235 237 239 243 248 255 263 271 279 285 291 298 293 270 275 265 260 250 242 249 255 251 242 221 172 254 262 275 287 287 258 259 241
235 230 227 228 228 228 228 228 228 229 228 228 230 232 233 233 235 238 243 248 256 264 270 279 285 296 272 286 273 270 262 259 258 255 257 251 238 227 203 292 313 281 223 267 350 187 260
234 235 231 227 228 228 227 228 227 228 227 226 227 228 229 230 231 232 235 242 250 258 265 273 287 292 271 268 270 254 233 218 203 234 233 223 217 201 163 171 284 225 262 229 311 258 272
236 242 236 231 227 229 226 226 225 226 225 224 225 225 225 225 226 228 229 234 248 256 264 272 259 279 255 253 258 226 179 215 225 164 119 160 184 190 175 184 234 235 233 227 252 214 246
232 233 242 234 234 229 229 224 225 224 223 221 223 223 224 220 221 221 222 216 233 257 227 211 206 211 178 196 272 245 235 217 186 183 186 187 210 210 206 211 244 271 247 260 240 265 293
232 232 241 235 233 228 227 225 226 223 221 219 219 220 220 220 218 219 218 206 195 195 284 252 245 247 244 264 272 226 206 194 188 203 150 169 239 228 231 224 234 247 264 270 278 267 261
231 233 242 233 236 235 233 228 222 220 218 215 215 213 217 217 215 215 217 218 219 240 264 236 237 242 243 243 239 241 229 225 202 215 200 220 223 222 200 218 222 237 244 257 261 295 269
227 236 223 232 229 226 231 231 229 219 217 212 210 212 214 216 209 206 215 219 222 231 275 233 214 243 184 197 254 244 228 213 211 236 217 253 242 238 210 223 211 247 217 244 259 270 284
210 214 229 216 206 219 226 221 225 219 213 210 205 201 199 207 194 202 212 215 210 169 257 147 150 157 170 175 2 13 176 193 214 199 181 217 173 216 228 236 202 254 188 218 240 250 289
221 229 235 231 223 210 207 190 194 193 199 196 186 179 183 193 216 219 218 211 186 131 235 179 136 165 154 212 229 129 154 175 220 225 251 248 268 250 226 205 201 160 185 81 239 260 264
197 210 210 216 206 204 202 201 196 193 198 193 197 197 209 221 227 217 210 175 133 204 25 173 171 164 204 178 211 183 169 176 166 157 221 257 244 233 198 216 183 196 187 243 238 216 257
213 200 189 190 196 195 197 188 190 193 196 201 204 207 214 217 215 217 185 128 199 205 216 135 128 148 181 168 222 188 156 195 220 167 141 221 300 193 206 215 204 194 186 190 222 214 275
135 133 154 166 180 192 206 207 199 201 201 207 209 216 213 218 219 201 174 190 198 188 178 166 149 167 201 204 211 177 199 202 207 186 190 191 254 197 217 209 200 182 215 213 264 234 285
150 132 133 146 149 185 206 203 216 214 213 214 217 214 207 219 221 209 202 196 212 210 145 171 197 180 192 197 185 195 191 173 208 189 206 229 284 218 169 173 220 216 177 170 187 222 238
125 139 148 147 151 171 192 212 221 221 208 206 213 190 194 210 203 202 216 191 216 217 157 169 190 182 210 187 195 195 213 59 51 161 196 172 221 224 159 191 190 204 230 229 185 228 243
113 119 133 144 164 177 173 153 198 187 200 189 199 195 178 185 181 115 175 173 248 204 203 122 143 193 198 177 179 217 220 244 176 160 167 214 218 256 247 250 203 216 227 207 210 209 224
115 111 113 113 102 121 150 156 153 176 185 187 177 149 181 180 183 184 157 163 11 227 206 187 192 196 182 191 231 194 190 136 192 151 174 175 224 262 263 232 204 224 218 218 224 244 222
102 118 102 101 91 87 105 174 183 193 162 167 143 146 148 181 53 159 142 161 173 44 59 68 120 122 186 221 216 237 213 185 156 120 206 181 190 228 250 273 337 275 236 224 211 220 235
92 92 92 105 106 105 90 107 181 211 183 172 118 114 151 155 192 104 128 144 146 142 83 90 31 150 143 213 217 212 221 271 253 183 243 232 225 206 244 231 237 238 284 289 238 241 243
66 84 111 135 166 176 183 159 81 185 155 153 91 99 86 97 131 115 131 190 160 124 148 192 176 157 164 189 166 100 342 72 170 318 212 222 243 188 242 237 215 230 236 255 259 270 268
67 69 69 86 152 187 186 183 100 40 118 97 111 134 149 136 120 127 158 168 168 143 128 127 153 131 156 162 139 138 193 217 226 246 216 202 219 201 251 249 229 235 225 223 233 220 213
41 42 49 48 45 44 228 238 188 177 156 96 136 136 116 131 116 126 147 147 152 163 125 130 134 114 151 138 137 169 224 244 240 229 211 257 257 239 254 218 230 249 245 220 220 229 212
23 14 355 353 2 23 15 295 228 193 175 166 162 169 154 115 118 127 154 145 126 124 105 141 160 174 154 114 76 231 187 232 235 229 225 215 200 278 253 228 250 259 185 188 192 232 345
359 344 315 317 291 307 323 318 264 208 185 171 171 145 90 115 215 143 145 154 136 160 136 189 170 163 158 99 92 194 210 23 300 315 213 217 246 234 237 284 293 12 351 346 282 210 24
328 313 303 280 272 271 270 277 260 215 194 175 178 184 134 106 135 154 154 178 155 137 134 132 148 142 179 114 147 182 215 246 248 266 238 199 222 233 247 251 259 360 314 316 211 50 2
308 308 296 271 248 254 246 240 251 243 198 186 184 191 188 106 142 162 149 149 149 163 148 157 116 91 102 168 165 191 206 215 241 246 268 270 320 296 286 234 229 8 354 359 288 243 291
309 302 284 276 253 239 250 232 227 237 221 193 192 186 195 167 145 181 187 166 158 148 138 159 140 155 156 115 182 143 191 226 221 252 165 253 222 270 240 271 291 291 253 289 275 268 249